ONEWEB-0087, 45451

Orbit data source: Space-Track

ONEWEB-0087, 45451 is a payload satellite owned by One Web (UK) in LEO that was launched on Sat, 21 Mar 2020 UTC via a SOYUZ-2-1B launch vehicle from the Tyuratam Missile And Space Complex (TTMTR). Payload-class satellites include a variety of spacecraft equipped with specific instruments for various scientific and technological missions. These include communications satellites like Starlink; space stations such as the ISS; scientific satellites like the Hubble; Earth observation satellites from companies like Planet Labs, Umbra, and HawkEye 360; GPS; miniature CubeSats for education and research; and military/defense satellites.

Loading next visibility...
Identifier
45451, 2020-020AD
Orbit
LEO
Last TLE update
20 hours ago
Origin
Manufacturer
One Web
Mission
Operational Commercial Communications
Bus & Motor
ARROW, Unknown motor
Mass
148 kg wet, ~140 kg dry
Launch date (UTC)
2020-03-21 (5 years ago)
Launch vehicle
SOYUZ-2-1B
Launch site
Tyuratam Missile And Space Complex (TTMTR)
Object type
Payload
Rocket body
Debris
Shape & HBR
Trap Box + 2 Pan, 5 m
Radar Cross Section
2.957 m², Large (>1 m²)

Expand to show TLE details & history

TLE from 20 hours ago
0 ONEWEB-0087
1 45451U 20020AD  25128.42949705 -.00000061  00000-0 -20775-3 0  9994
2 45451  87.8806 101.6890 0002010  77.1244 283.0108 13.11418029249536
Epoch: 2025-05-08T10:18Z
Definitive object data (Epoch: 2025-05-08T10:18:28.545Z)
Latitude
-0.00004°
Longitude
80.56994°
Altitude
1,220.224 km
Speed
7.244 km/s
True Right ascension
06h 46m 45s
True Declination
0° 00' 00"
Sunlit
Object was in daylight at TLE epoch
Visualization TLE readout
Latitude
48.43804°
Longitude
82.7804°
Altitude
1,223.939 km
Speed
7.248 km/s
Apparent Right ascension
04h 55m 11s
Apparent Declination
10° 32' 49"
Sunlit
Object is in daylight
Visualization observer readout
Local Sidereal Time
14:50:37
Azimuth
323.227° NNW
Elevation
-31.864°
Doppler factor
1
Orbital elements
Apogee altitude
1,216.323 km
Perigee altitude
1,213.271 km
Semi-major axis
7,592.934 km
Eccentricity
0.000201
Inclination
87.8806°
RAAN
101.689°
Arg. of periapsis
77.1244°
True anomaly
282.98836°
Mean anomaly
283.0108°
Eccentric anomaly
282.99958°
Mean motion
3.28041 °/min
BSTAR
-0.00020775
Orbital period
109.74 mins
Loading maneuver chart data...
Loading SW <> Apogee altitude chart data...
Loading historical data...
Loading historical data...
Loading historical data...
Loading historical data...
Loading historical data...
Loading historical data...
Loading historical data...

ONEWEB-0087 Visibility forecast

Observer location: undefined°, undefined°

Span
Click to sort rows by Start time (UTC) header in descending order
Start Az.
Max El. time (UTC)
Max El. Az.
Max El.
End time (UTC)
End Az.
10 mins2025-05-09 08:53:44.745Z29.01° NE2025-05-09 08:58:44.745Z73.507° E20.142°2025-05-09 09:03:44.745Z119.707° SE
12 mins2025-05-09 10:43:44.745Z351.466° N2025-05-09 10:49:44.745Z257.381° W42.42°2025-05-09 10:55:44.745Z194.72° SSW
9 mins2025-05-09 21:14:44.745Z116.007° SE2025-05-09 21:18:44.745Z75.655° E22.293°2025-05-09 21:23:44.745Z29.093° NE
12 mins2025-05-09 23:02:44.745Z199.193° SSW2025-05-09 23:07:44.745Z263.888° W40.797°2025-05-09 23:14:44.745Z352.385° N
|